�������l�o���
Date,Time,MP-1(��Sv/h),MP-2(��Sv/h),MP-3(��Sv/h),MP-4(��Sv/h),MP-5(��Sv/h),MP-6(��Sv/h),MP-7(��Sv/h),MP-8(��Sv/h),����,����(m/s),���J
2023/03/24,00:00,0.547,0.784,0.483,0.994,0.691,0.320,0.569,0.539,��,11.3,�L
2023/03/24,00:10,0.545,0.787,0.485,0.993,0.689,0.319,0.569,0.541,��,11.3,�L
2023/03/24,00:20,0.546,0.786,0.485,0.993,0.691,0.318,0.569,0.541,��,11.6,�L
2023/03/24,00:30,0.546,0.786,0.486,0.991,0.690,0.319,0.568,0.541,��,11.4,�L
2023/03/24,00:40,0.546,0.788,0.485,0.993,0.691,0.318,0.569,0.541,��,10.7,�L
2023/03/24,00:50,0.548,0.786,0.484,0.994,0.689,0.318,0.568,0.541,��,10.2,�L
2023/03/24,01:00,0.548,0.788,0.487,0.993,0.689,0.319,0.569,0.541,��,9.1,�L
2023/03/24,01:10,0.548,0.785,0.486,0.995,0.688,0.319,0.571,0.543,��,7.4,�L
2023/03/24,01:20,0.550,0.786,0.485,0.993,0.691,0.319,0.570,0.542,��,7.3,�L
2023/03/24,01:30,0.547,0.785,0.487,0.993,0.692,0.319,0.570,0.540,��,7.1,�L
2023/03/24,01:40,0.548,0.787,0.486,0.992,0.691,0.320,0.571,0.541,��,6.7,��
2023/03/24,01:50,0.548,0.787,0.484,0.993,0.690,0.320,0.569,0.542,��,3.6,��
2023/03/24,02:00,0.547,0.787,0.486,0.993,0.690,0.318,0.569,0.542,��쓌,2.6,��
2023/03/24,02:10,0.548,0.784,0.486,0.991,0.691,0.318,0.570,0.542,��쓌,3.2,��
2023/03/24,02:20,0.548,0.786,0.484,0.991,0.690,0.319,0.569,0.544,��,3.4,��
2023/03/24,02:30,0.547,0.789,0.485,0.990,0.689,0.319,0.569,0.542,��쐼,3.4,��
2023/03/24,02:40,0.547,0.787,0.484,0.990,0.690,0.318,0.568,0.542,���쐼,1.4,��
2023/03/24,02:50,0.547,0.788,0.484,0.992,0.691,0.318,0.567,0.541,���쐼,1.1,��
2023/03/24,03:00,0.546,0.788,0.484,0.991,0.693,0.316,0.568,0.542,�쐼,2.6,��
2023/03/24,03:10,0.547,0.788,0.483,0.992,0.691,0.317,0.568,0.542,�쐼,2.6,��
2023/03/24,03:20,0.548,0.787,0.484,0.991,0.690,0.319,0.568,0.542,�쐼,1.9,��
2023/03/24,03:30,0.548,0.788,0.485,0.990,0.690,0.319,0.568,0.542,���k��,1.1,��
2023/03/24,03:40,0.548,0.789,0.483,0.991,0.691,0.319,0.568,0.543,�k,0.6,��
2023/03/24,03:50,0.547,0.789,0.485,0.990,0.693,0.317,0.568,0.544,���k��,1.5,��
2023/03/24,04:00,0.548,0.790,0.483,0.991,0.690,0.320,0.567,0.543,���쐼,1.5,��
2023/03/24,04:10,0.548,0.790,0.485,0.993,0.693,0.319,0.568,0.544,��,1.7,��
2023/03/24,04:20,0.548,0.788,0.484,0.990,0.693,0.319,0.570,0.543,��쐼,0.6,��
2023/03/24,04:30,0.549,0.789,0.485,0.989,0.692,0.318,0.569,0.543,�쐼,2.3,��
2023/03/24,04:40,0.548,0.790,0.484,0.991,0.694,0.318,0.569,0.543,��쐼,2.8,��
2023/03/24,04:50,0.548,0.789,0.483,0.990,0.691,0.319,0.570,0.542,��쓌,4.1,��
2023/03/24,05:00,0.550,0.788,0.484,0.990,0.693,0.318,0.568,0.542,��,3.4,��
2023/03/24,05:10,0.549,0.789,0.485,0.992,0.691,0.317,0.569,0.543,�쐼,3.1,��
2023/03/24,05:20,0.550,0.788,0.485,0.994,0.691,0.319,0.569,0.543,��,3.6,��
2023/03/24,05:30,0.550,0.788,0.485,0.995,0.692,0.319,0.570,0.542,��,4.3,��
2023/03/24,05:40,0.548,0.790,0.485,0.991,0.692,0.319,0.569,0.543,���k��,5.0,��
2023/03/24,05:50,0.549,0.790,0.486,0.991,0.690,0.317,0.569,0.543,�k��,5.8,��
2023/03/24,06:00,0.548,0.790,0.486,0.993,0.693,0.318,0.569,0.543,���k��,6.3,��
2023/03/24,06:10,0.549,0.791,0.485,0.996,0.691,0.319,0.569,0.543,���k��,9.6,��
2023/03/24,06:20,0.548,0.790,0.485,0.995,0.694,0.318,0.569,0.542,��,8.6,��
2023/03/24,06:30,0.549,0.790,0.486,0.995,0.694,0.317,0.569,0.543,��,9.1,��
2023/03/24,06:40,0.548,0.788,0.487,0.996,0.695,0.318,0.572,0.542,���k��,9.4,��
2023/03/24,06:50,0.549,0.789,0.484,0.996,0.693,0.319,0.570,0.542,�k��,7.3,��
2023/03/24,07:00,0.549,0.787,0.484,0.998,0.694,0.317,0.570,0.541,�k��,5.4,��
2023/03/24,07:10,0.549,0.790,0.486,0.996,0.694,0.317,0.571,0.543,�k��,6.1,��
2023/03/24,07:20,0.548,0.789,0.486,0.997,0.694,0.318,0.570,0.543,�k��,6.1,��
2023/03/24,07:30,0.549,0.792,0.485,0.997,0.692,0.318,0.572,0.542,�k��,7.2,��
2023/03/24,07:40,0.551,0.793,0.485,0.997,0.694,0.319,0.571,0.542,���k��,7.4,��
2023/03/24,07:50,0.552,0.791,0.485,0.996,0.694,0.319,0.571,0.543,���k��,6.6,��
2023/03/24,08:00,0.549,0.793,0.487,0.997,0.696,0.319,0.568,0.543,��,7.0,��
2023/03/24,08:10,0.549,0.791,0.486,0.995,0.695,0.318,0.572,0.545,���쐼,7.5,��
2023/03/24,08:20,0.551,0.793,0.486,0.996,0.695,0.318,0.571,0.543,���쐼,8.2,��
2023/03/24,08:30,0.548,0.792,0.486,0.998,0.695,0.317,0.570,0.541,��,6.5,��
2023/03/24,08:40,0.551,0.791,0.486,0.998,0.693,0.319,0.570,0.542,��,6.9,��
2023/03/24,08:50,0.550,0.791,0.486,0.997,0.693,0.319,0.570,0.542,��,6.8,��
2023/03/24,09:00,0.550,0.789,0.484,0.999,0.694,0.318,0.570,0.541,��,6.4,��
2023/03/24,09:10,0.551,0.791,0.484,1.000,0.694,0.318,0.570,0.541,��,5.5,��
2023/03/24,09:20,0.550,0.792,0.486,1.002,0.694,0.318,0.570,0.543,��,8.5,��
2023/03/24,09:30,0.551,0.791,0.484,1.001,0.696,0.319,0.570,0.540,��,10.5,��
2023/03/24,09:40,0.551,0.793,0.485,1.000,0.694,0.319,0.571,0.541,��,8.3,��
2023/03/24,09:50,0.551,0.791,0.484,0.999,0.695,0.318,0.571,0.542,��,6.2,��
2023/03/24,10:00,0.551,0.791,0.484,1.000,0.693,0.318,0.572,0.543,���k��,7.3,��
2023/03/24,10:10,0.551,0.791,0.487,0.999,0.695,0.318,0.572,0.542,��,5.8,��
2023/03/24,10:20,0.550,0.792,0.484,1.000,0.698,0.318,0.570,0.543,��,6.9,�L
2023/03/24,10:30,0.553,0.793,0.486,1.000,0.696,0.318,0.570,0.544,���k��,6.8,�L
2023/03/24,10:40,0.556,0.796,0.491,1.004,0.698,0.322,0.572,0.544,���k��,6.0,�L
2023/03/24,10:50,0.558,0.799,0.497,1.009,0.702,0.329,0.575,0.545,���k��,6.0,�L
2023/03/24,11:00,0.563,0.800,0.497,1.011,0.705,0.331,0.575,0.545,��,6.1,�L
2023/03/24,11:10,0.559,0.797,0.495,1.010,0.702,0.332,0.574,0.546,��,5.6,�L
2023/03/24,11:20,0.559,0.796,0.496,1.009,0.702,0.329,0.575,0.544,��,4.8,�L
2023/03/24,11:30,0.560,0.794,0.493,1.007,0.702,0.329,0.573,0.544,���k��,5.2,�L
2023/03/24,11:40,0.555,0.794,0.492,1.005,0.699,0.327,0.572,0.542,���k��,6.3,��
2023/03/24,11:50,0.556,0.793,0.490,1.004,0.698,0.324,0.573,0.542,���k��,5.4,��
2023/03/24,12:00,0.554,0.794,0.489,1.003,0.698,0.323,0.573,0.542,�k��,5.0,��
2023/03/24,12:10,0.553,0.792,0.488,1.001,0.698,0.323,0.573,0.541,�k��,4.8,��
2023/03/24,12:20,0.553,0.792,0.489,1.000,0.695,0.320,0.572,0.541,�k�k��,5.9,��
2023/03/24,12:30,0.550,0.791,0.486,1.001,0.695,0.320,0.571,0.541,�k�k��,6.6,��
2023/03/24,12:40,0.547,0.791,0.486,1.001,0.695,0.319,0.572,0.542,�k�k��,6.1,��
2023/03/24,12:50,0.551,0.790,0.484,1.000,0.694,0.319,0.571,0.542,�k�k��,6.0,��
2023/03/24,13:00,0.548,0.787,0.485,1.000,0.694,0.318,0.570,0.541,�k��,5.1,��
2023/03/24,13:10,0.549,0.788,0.484,0.999,0.694,0.318,0.572,0.540,���k��,5.5,�L
2023/03/24,13:20,0.549,0.790,0.484,0.999,0.691,0.318,0.570,0.542,�k��,6.4,�L
2023/03/24,13:30,0.548,0.789,0.484,1.000,0.695,0.319,0.572,0.542,�k��,6.4,�L
2023/03/24,13:40,0.551,0.790,0.484,1.000,0.694,0.317,0.572,0.541,�k��,5.4,�L
2023/03/24,13:50,0.551,0.790,0.485,1.003,0.695,0.318,0.572,0.542,�k��,6.0,�L
2023/03/24,14:00,0.552,0.789,0.485,1.003,0.693,0.318,0.573,0.542,�k��,6.4,�L
2023/03/24,14:10,0.552,0.794,0.484,1.002,0.696,0.319,0.572,0.542,�k��,5.5,�L
2023/03/24,14:20,0.551,0.792,0.487,1.001,0.695,0.319,0.572,0.543,�k��,5.7,��
2023/03/24,14:30,0.550,0.794,0.484,0.999,0.696,0.318,0.572,0.543,���k��,5.9,��
2023/03/24,14:40,0.550,0.791,0.484,1.001,0.696,0.318,0.571,0.542,�k��,3.2,��
2023/03/24,14:50,0.549,0.790,0.484,1.001,0.694,0.317,0.572,0.543,�k��,3.3,��
2023/03/24,15:00,0.550,0.789,0.484,1.002,0.692,0.317,0.573,0.542,�k��,4.7,��
2023/03/24,15:10,0.550,0.791,0.485,1.003,0.694,0.317,0.572,0.542,�k��,5.1,��
2023/03/24,15:20,0.549,0.790,0.484,1.000,0.694,0.317,0.572,0.542,�k��,4.8,��
2023/03/24,15:30,0.549,0.793,0.481,1.002,0.694,0.317,0.573,0.542,�k��,6.8,��
2023/03/24,15:40,0.549,0.790,0.483,0.999,0.694,0.319,0.572,0.542,�k��,6.1,��
2023/03/24,15:50,0.548,0.791,0.483,1.000,0.695,0.316,0.571,0.543,�k��,6.2,��
2023/03/24,16:00,0.549,0.791,0.483,1.002,0.694,0.316,0.572,0.541,�k��,5.7,��
2023/03/24,16:10,0.548,0.792,0.484,1.001,0.694,0.317,0.572,0.542,���k��,5.4,��
2023/03/24,16:20,0.549,0.793,0.483,1.000,0.694,0.316,0.573,0.542,���k��,4.8,��
2023/03/24,16:30,0.548,0.791,0.484,1.000,0.695,0.317,0.573,0.541,���k��,5.2,��
2023/03/24,16:40,0.549,0.792,0.484,1.000,0.697,0.317,0.571,0.542,�k��,6.8,��
2023/03/24,16:50,0.550,0.794,0.484,1.004,0.697,0.317,0.571,0.543,�k��,6.5,��
2023/03/24,17:00,0.550,0.791,0.484,1.001,0.698,0.317,0.570,0.542,�k��,5.5,��
2023/03/24,17:10,0.549,0.793,0.485,1.002,0.698,0.318,0.573,0.542,�k��,4.4,��
2023/03/24,17:20,0.549,0.792,0.486,1.002,0.697,0.317,0.573,0.542,�k��,4.0,��
2023/03/24,17:30,0.550,0.793,0.486,1.002,0.697,0.318,0.571,0.544,���k��,1.7,��
2023/03/24,17:40,0.551,0.794,0.487,1.001,0.699,0.319,0.571,0.543,���k��,2.3,��
2023/03/24,17:50,0.549,0.795,0.487,1.002,0.696,0.319,0.571,0.543,��,2.0,��
2023/03/24,18:00,0.551,0.794,0.486,1.000,0.699,0.319,0.570,0.545,�k�k��,1.7,��
2023/03/24,18:10,0.550,0.797,0.485,1.001,0.697,0.318,0.571,0.542,�k�k��,5.5,��
2023/03/24,18:20,0.550,0.796,0.487,1.002,0.699,0.318,0.573,0.544,�k�k��,5.2,��
2023/03/24,18:30,0.549,0.797,0.484,1.001,0.697,0.318,0.571,0.545,�k�k��,6.7,��
2023/03/24,18:40,0.550,0.795,0.485,0.999,0.697,0.318,0.572,0.544,�k,6.3,��
2023/03/24,18:50,0.550,0.797,0.485,1.003,0.700,0.318,0.572,0.543,�k,6.5,��
2023/03/24,19:00,0.550,0.796,0.485,1.001,0.699,0.316,0.570,0.543,�k,6.3,��
2023/03/24,19:10,0.551,0.796,0.485,1.002,0.698,0.317,0.571,0.543,�k,6.6,��
2023/03/24,19:20,0.550,0.796,0.487,1.002,0.699,0.318,0.572,0.543,�k,6.5,��
2023/03/24,19:30,0.548,0.796,0.485,1.000,0.699,0.317,0.573,0.545,�k,5.4,��
2023/03/24,19:40,0.549,0.796,0.485,1.001,0.698,0.317,0.572,0.543,�k,5.0,��
2023/03/24,19:50,0.550,0.798,0.486,1.000,0.698,0.317,0.573,0.544,�k,5.7,��
2023/03/24,20:00,0.549,0.794,0.487,1.001,0.699,0.317,0.572,0.543,�k,7.5,��
2023/03/24,20:10,0.552,0.796,0.485,1.003,0.698,0.318,0.571,0.543,�k,7.6,��
2023/03/24,20:20,0.550,0.798,0.485,1.002,0.697,0.317,0.573,0.543,�k,8.1,��
2023/03/24,20:30,0.550,0.796,0.484,1.002,0.698,0.318,0.571,0.545,�k,7.1,��
2023/03/24,20:40,0.549,0.797,0.484,1.001,0.698,0.318,0.573,0.543,�k,7.5,��
2023/03/24,20:50,0.550,0.797,0.486,1.002,0.698,0.317,0.571,0.544,�k,7.8,��
2023/03/24,21:00,0.549,0.797,0.484,1.003,0.699,0.318,0.571,0.544,�k,7.2,��
2023/03/24,21:10,0.551,0.797,0.484,1.002,0.698,0.317,0.571,0.544,�k,8.0,��
2023/03/24,21:20,0.548,0.797,0.485,1.002,0.699,0.317,0.571,0.542,�k,7.5,��
2023/03/24,21:30,0.550,0.796,0.484,1.002,0.698,0.317,0.572,0.543,�k,8.1,��
2023/03/24,21:40,0.550,0.798,0.483,1.003,0.700,0.317,0.571,0.543,�k,7.4,��
2023/03/24,21:50,0.549,0.797,0.484,1.005,0.701,0.317,0.571,0.542,�k,8.1,��
2023/03/24,22:00,0.550,0.798,0.486,1.002,0.699,0.317,0.572,0.544,�k,8.8,��
2023/03/24,22:10,0.549,0.796,0.484,1.002,0.698,0.317,0.571,0.543,�k,8.4,��
2023/03/24,22:20,0.549,0.797,0.484,1.003,0.698,0.318,0.571,0.544,�k,7.5,��
2023/03/24,22:30,0.549,0.797,0.484,1.002,0.699,0.316,0.571,0.541,�k,6.8,��
2023/03/24,22:40,0.549,0.797,0.486,1.005,0.700,0.317,0.571,0.543,�k,6.9,��
2023/03/24,22:50,0.549,0.797,0.485,1.005,0.698,0.317,0.572,0.541,�k�k��,7.0,��
2023/03/24,23:00,0.549,0.797,0.484,1.006,0.700,0.317,0.571,0.544,�k�k��,6.2,��
2023/03/24,23:10,0.550,0.797,0.485,1.003,0.700,0.317,0.571,0.543,�k�k��,5.8,��
2023/03/24,23:20,0.548,0.796,0.484,1.003,0.699,0.317,0.570,0.542,�k�k��,5.0,��
2023/03/24,23:30,0.551,0.798,0.485,1.004,0.699,0.315,0.573,0.544,�k�k��,5.5,��
2023/03/24,23:40,0.550,0.797,0.485,1.004,0.699,0.317,0.571,0.542,�k�k��,5.2,��
2023/03/24,23:50,0.549,0.799,0.485,1.004,0.699,0.317,0.571,0.542,�k�k��,5.7,��
